Showing default

NVS-02, 62850

Orbit data source: Space-Track

NVS-02, 62850 is a payload satellite owned by ISRO (IN) in HEO that was launched on Wed, 29 Jan 2025 UTC via a GSLV MK II launch vehicle from the Sirharikota (SRI). Payload-class satellites include a variety of spacecraft equipped with specific instruments for various scientific and technological missions. These include communications satellites like Starlink; space stations such as the ISS; scientific satellites like the Hubble; Earth observation satellites from companies like Planet Labs, Umbra, and HawkEye 360; GPS; miniature CubeSats for education and research; and military/defense satellites.

Loading next visibility...
Identifier
62850, 2025-020A
Orbit
HEO
Last TLE update
2 weeks ago
Origin
Manufacturer
ISRO
Mission
Partially operational Civil Navigation
Bus & Motor
I2K, ISRO LAM
Mass
2,232 kg wet, ~1,000 kg dry
Launch date (UTC)
2025-01-29 (3 months ago)
Launch vehicle
GSLV MK II
Launch site
Sirharikota (SRI)
Object type
Payload
Rocket body
Debris
Shape & HBR
Box + 2 Pan, 9.5 m
Radar Cross Section
8.526 m², Large (>1 m²)

Expand to show TLE details & history

TLE from 2 weeks ago
0 NVS-02
1 62850U 25020A   25112.01547669  .00008238 -14398-6  63830-3 0  9995
2 62850  21.0665  52.5431 7387800 232.8801  34.8653  2.17491987  1806
Epoch: 2025-04-22T00:22Z
Definitive object data (Epoch: 2025-04-22T00:22:17.186Z)
Latitude
0.00026°
Longitude
-163.42752°
Altitude
14,282.073 km
Speed
4.769 km/s
True Right ascension
03h 29m 51s
True Declination
0° 00' 01"
Sunlit
Object was in daylight at TLE epoch
Visualization TLE readout
Latitude
20.03303°
Longitude
-98.79651°
Altitude
36,188.353 km
Speed
1.696 km/s
Apparent Right ascension
07h 20m 43s
Apparent Declination
14° 29' 45"
Sunlit
Object is in daylight
Visualization observer readout
Local Sidereal Time
14:03:00
Azimuth
287.822° WNW
Elevation
1.397°
Doppler factor
1
Orbital elements
Apogee altitude
37,383.893 km
Perigee altitude
196.31 km
Semi-major axis
25,168.239 km
Eccentricity
0.73878
Inclination
21.0665°
RAAN
52.5431°
Arg. of periapsis
232.8801°
True anomaly
127.16469°
Mean anomaly
34.8653°
Eccentric anomaly
75.92315°
Mean motion
0.54358 °/min
BSTAR
0.0006383
Orbital period
662.28 mins
Loading maneuver chart data...
Loading SW <> Apogee altitude chart data...
Loading historical data...
Loading historical data...
Loading historical data...
Loading historical data...
Loading historical data...
Loading historical data...
Loading historical data...
Other satellites on launch #20 in the year 2025 (2025-01-29 UTC)

NVS-02 Visibility forecast

Observer location: undefined°, undefined°

Span
Click to sort rows by Start time (UTC) header in descending order
Start Az.
Max El. time (UTC)
Max El. Az.
Max El.
End time (UTC)
End Az.
462 mins2025-05-09 22:12:15.965Z240.544° WSW2025-05-10 00:16:15.965Z245.119° WSW32.176°2025-05-10 05:54:15.965Z277.635° WNW
|